S55G-5 Weather Reports


time (UTC)temp
F
wind
direction
speed
knots
gust
knots
rain 1hr
in
rain 24hr
in
rain mn
in
humidity
%
barometer
mb
20260507225403 51 25 0.0 1.7 0.00 0.00 0.00 94 1017.1
20260507224503 52 44 0.9 1.7 0.00 0.00 0.00 92 1016.9
20260507223603 53 7 0.0 1.7 0.00 0.00 0.00 92 1017.0
20260507222703 53 14 0.9 1.7 0.00 0.00 0.00 92 1017.1
20260507221803 53 360 0.0 1.7 0.00 0.00 0.00 93 1017.1
20260507220903 53 22 0.0 1.7 0.00 0.00 0.00 93 1017.2
20260507220003 53 54 0.0 1.7 0.00 0.00 0.00 93 1017.1
20260507215403 53 69 0.0 3.5 0.00 0.00 0.00 93 1017.0
20260507214503 54 67 0.0 1.7 0.00 0.00 0.00 94 1016.9
20260507213603 53 67 0.0 1.7 0.00 0.00 0.00 94 1017.1
20260507212703 53 72 0.0 1.7 0.00 0.00 0.00 94 1017.0
20260507211803 53 136 1.7 1.7 0.00 0.00 0.00 94 1016.9
20260507210903 53 116 0.0 1.7 0.00 0.00 0.00 94 1017.0
20260507210003 53 155 0.0 1.7 0.00 0.00 0.00 94 1016.7
20260507205618 53 192 0.9 1.7 0.00 0.00 0.00 94 1016.7
20260507204717 54 328 0.0 1.7 0.00 0.00 0.00 95 1016.6
20260507203603 53 67 0.0 1.7 0.00 0.00 0.00 95 1016.6
20260507202703 53 67 0.0 1.7 0.00 0.00 0.00 94 1016.5
20260507201803 53 57 0.0 1.7 0.00 0.00 0.00 94 1016.3
20260507200903 53 41 0.9 1.7 0.00 0.00 0.00 93 1016.3
20260507200218 54 19 0.9 1.7 0.00 0.00 0.00 93 1016.0
20260507195403 54 322 0.9 1.7 0.00 0.00 0.00 93 1016.0
20260507194503 54 292 0.0 1.7 0.00 0.00 0.00 92 1015.9
20260507193603 55 55 1.7 1.7 0.00 0.00 0.00 92 1016.0
20260507192918 56 67 0.0 1.7 0.00 0.00 0.00 92 1015.6
20260507191803 56 0 0.0 0.0 0.00 0.00 0.00 91 1015.6
20260507190903 56 66 0.0 1.7 0.00 0.00 0.00 90 1015.4
20260507190004 56 21 1.7 1.7 0.00 0.00 0.00 89 1015.4
20260507185403 57 331 0.0 1.7 0.00 0.00 0.00 88 1015.3
20260507184503 58 306 0.0 1.7 0.00 0.00 0.00 87 1015.0
20260507183603 58 62 0.9 1.7 0.00 0.00 0.00 86 1015.1
20260507182703 59 56 1.7 1.7 0.00 0.00 0.00 84 1015.0
20260507181803 60 292 0.0 1.7 0.00 0.00 0.00 83 1015.0
20260507180903 61 292 0.9 1.7 0.00 0.00 0.00 77 1014.5
20260507180217 62 292 0.0 1.7 0.00 0.00 0.00 76 1014.8
20260507175403 63 279 0.0 1.7 0.00 0.00 0.00 75 1014.8
20260507174503 66 279 0.0 1.7 0.00 0.00 0.00 67 1014.5
20260507173818 67 273 0.0 1.7 0.00 0.00 0.00 69 1014.5
20260507172917 66 278 0.9 1.7 0.00 0.00 0.00 69 1014.5
20260507171803 65 268 0.0 1.7 0.00 0.00 0.00 72 1014.8
20260507170903 64 313 1.7 1.7 0.00 0.00 0.00 72 1014.8
20260507170003 64 25 0.0 1.7 0.00 0.08 0.00 73 1014.8
20260507165403 64 7 0.0 1.7 0.00 0.13 0.00 75 1014.5
20260507164503 65 292 0.0 1.7 0.00 0.13 0.00 73 1014.6
20260507163603 65 287 0.0 3.5 0.00 0.13 0.00 73 1014.8
20260507162917 64 285 1.7 3.5 0.00 0.13 0.00 73 1014.7
20260507161803 64 252 0.9 3.5 0.00 0.13 0.00 73 1014.7
20260507160903 64 255 0.9 3.5 0.00 0.13 0.00 71 1014.5
20260507160003 65 262 1.7 5.2 0.00 0.13 0.00 69 1014.9
20260507155403 65 272 1.7 5.2 0.00 0.13 0.00 65 1014.7
20260507154503 65 283 1.7 6.1 0.00 0.13 0.00 64 1014.7
20260507153603 66 265 2.6 9.6 0.00 0.13 0.00 60 1014.6
20260507152703 68 252 0.9 6.1 0.00 0.13 0.00 58 1014.5
20260507151803 70 269 2.6 7.8 0.00 0.13 0.00 53 1014.3
20260507150903 70 261 3.5 7.8 0.00 0.13 0.00 57 1014.0
20260507150003 71 254 2.6 7.8 0.00 0.13 0.00 60 1013.6
20260507145403 72 241 2.6 6.1 0.00 0.13 0.00 58 1013.6
20260507144503 73 234 1.7 6.1 0.00 0.13 0.00 57 1013.5
20260507143818 72 248 2.6 6.1 0.00 0.13 0.00 53 1013.5
20260507142703 73 219 1.7 6.1 0.00 0.13 0.00 57 1013.2
20260507141803 74 257 1.7 7.8 0.00 0.13 0.00 49 1013.3
20260507140903 74 245 3.5 7.0 0.00 0.13 0.00 50 1013.5
20260507140003 74 260 1.7 7.8 0.00 0.13 0.00 49 1013.8
20260507135617 73 274 3.5 7.8 0.00 0.13 0.00 52 1013.3
20260507134503 74 255 2.6 6.1 0.00 0.13 0.00 54 1013.6
20260507133603 74 221 1.7 6.1 0.00 0.13 0.00 53 1013.5
20260507132703 73 177 1.7 9.6 0.00 0.13 0.00 63 1013.7
20260507131803 73 253 1.7 6.1 0.00 0.13 0.00 61 1013.7
20260507130903 73 253 1.7 6.1 0.00 0.13 0.00 61 1013.6
20260507130217 73 236 1.7 5.2 0.00 0.13 0.00 63 1013.7
20260507125403 74 247 1.7 6.1 0.00 0.13 0.00 66 1013.8
20260507124503 73 242 1.7 6.1 0.00 0.13 0.00 63 1013.9
20260507123603 72 223 2.6 5.2 0.00 0.13 0.00 62 1013.8
20260507122705 72 221 1.7 5.2 0.00 0.13 0.00 65 1013.7
20260507121803 72 252 3.5 9.6 0.00 0.13 0.00 62 1013.8
20260507121118 71 252 3.5 7.0 0.00 0.13 0.00 63 1013.8
20260507120003 72 237 3.5 7.0 0.00 0.13 0.00 64 1013.9
20260507115403 73 223 1.7 7.0 0.00 0.13 0.00 65 1013.8
20260507114503 73 226 1.7 5.2 0.00 0.13 0.00 64 1013.8
20260507113603 71 248 2.6 7.8 0.00 0.13 0.00 66 1013.9
20260507112703 70 271 3.5 7.8 0.00 0.13 0.00 66 1013.8
20260507112018 71 264 3.5 6.1 0.00 0.13 0.00 65 1014.2
20260507110903 72 245 2.6 7.0 0.00 0.13 0.00 63 1014.0
20260507110003 72 227 1.7 6.1 0.00 0.13 0.00 66 1014.2
20260507105403 72 245 2.6 9.6 0.00 0.13 0.00 66 1014.2
20260507104503 71 267 5.2 9.6 0.00 0.13 0.00 64 1013.9
20260507103603 71 259 3.5 6.1 0.00 0.13 0.00 67 1014.3
20260507102703 72 237 1.7 6.1 0.00 0.13 0.00 64 1014.2
20260507101803 71 265 3.5 7.8 0.00 0.13 0.00 68 1014.2
20260507100903 70 245 2.6 7.8 0.00 0.13 0.00 68 1014.5
20260507100003 70 251 1.7 7.0 0.00 0.13 0.00 72 1014.1
20260507095403 70 243 1.7 7.0 0.00 0.13 0.00 69 1014.1
20260507094503 70 238 2.6 7.0 0.00 0.13 0.00 71 1014.1
20260507093603 71 251 2.6 6.1 0.00 0.14 0.00 70 1014.1
20260507092703 69 195 1.7 9.6 0.00 0.14 0.00 72 1014.1
20260507091803 69 179 1.7 7.8 0.00 0.19 0.00 70 1014.0
20260507090903 68 194 3.5 12.2 0.00 0.20 0.00 72 1014.0
20260507090218 69 210 3.5 7.8 0.00 0.22 0.00 71 1014.2
20260507085403 69 182 1.7 9.6 0.00 0.24 0.00 72 1013.9
20260507084503 69 244 1.7 9.6 0.00 0.25 0.00 71 1014.0
20260507083603 69 242 1.7 5.2 0.00 0.30 0.00 72 1014.0
20260507082703 69 236 1.7 9.6 0.00 0.34 0.00 71 1013.8
20260507081803 68 230 2.6 7.0 0.00 0.38 0.00 73 1013.8
20260507080903 67 239 0.9 3.5 0.00 0.40 0.00 78 1013.8
20260507080004 66 181 0.9 5.2 0.00 0.44 0.00 79 1013.8
20260507075403 66 202 0.9 5.2 0.00 0.46 0.00 77 1013.9
20260507074503 65 267 1.7 3.5 0.00 0.50 0.00 81 1013.7
20260507073603 64 259 0.0 3.5 0.00 0.51 0.00 85 1013.7
20260507072703 64 177 1.7 5.2 0.00 0.54 0.00 83 1013.6
20260507071803 65 125 1.7 6.1 0.00 0.58 0.00 80 1013.5
20260507070903 64 88 2.6 5.2 0.00 0.61 0.00 82 1013.5
20260507070006 64 96 1.7 5.2 0.00 0.64 0.00 82 1013.4
20260507065403 65 96 1.7 3.5 0.00 0.64 0.00 83 1013.3
20260507064503 64 94 1.7 5.2 0.00 0.69 0.00 83 1013.5
20260507063603 64 116 2.6 6.1 0.00 0.72 0.00 84 1013.2
20260507062703 64 101 1.7 3.5 0.00 0.78 0.00 84 1013.3
20260507061803 63 101 0.9 3.5 0.00 0.79 0.00 85 1013.2
20260507060903 63 107 0.9 1.7 0.00 0.79 0.00 87 1013.3
20260507060217 62 94 0.9 1.7 0.00 0.79 0.00 87 1013.2
20260507055403 62 90 0.0 1.7 0.00 0.79 0.00 88 1013.3
20260507054718 62 89 1.7 1.7 0.00 0.79 0.00 88 1013.2
20260507053603 60 58 0.0 1.7 0.00 0.79 0.00 93 1012.9
20260507052703 59 87 0.9 1.7 0.00 0.81 0.00 95 1012.9
20260507052018 58 86 0.9 1.7 0.00 0.84 0.00 95 1013.1
20260507051117 57 71 0.0 1.7 0.00 0.84 0.00 95 1012.9
20260507050003 57 97 0.0 1.7 0.00 0.84 0.00 95 1012.9
20260507045403 57 84 0.0 1.7 0.00 0.84 0.00 95 1012.8
20260507044503 57 72 0.9 1.7 0.00 0.84 0.00 95 1012.5
20260507043818 57 72 0.9 1.7 0.00 0.84 0.00 95 1012.5
20260507042703 57 94 0.0 1.7 0.00 0.84 0.00 95 1012.5
20260507041803 57 68 1.7 1.7 0.00 0.84 0.00 95 1012.4
20260507040903 57 95 0.0 1.7 0.00 0.84 0.00 95 1012.5
20260507040003 57 319 0.0 1.7 0.00 0.84 0.00 94 1012.3
20260507035403 57 41 0.9 1.7 0.00 0.84 0.00 94 1012.1
20260507034503 57 84 0.0 1.7 0.00 0.84 0.00 93 1012.4
20260507033603 58 85 0.9 1.7 0.00 0.84 0.00 93 1012.2
20260507032703 58 139 1.7 1.7 0.00 0.84 0.00 92 1012.4
20260507031803 59 39 0.9 3.5 0.00 0.84 0.00 91 1012.6
20260507031118 59 50 1.7 3.5 0.00 0.84 0.00 91 1012.5
20260507030004 59 23 0.9 1.7 0.00 0.84 0.00 91 1012.3
20260507025403 59 42 0.0 1.7 0.00 0.84 0.00 90 1012.2
20260507024503 59 80 0.9 3.5 0.00 0.84 0.00 92 1012.3
20260507023603 58 45 0.0 1.7 0.00 0.84 0.00 92 1012.2
20260507022703 59 86 1.7 3.5 0.00 0.84 0.00 91 1012.3
20260507021803 59 105 0.0 1.7 0.00 0.84 0.00 90 1012.4
20260507020903 60 81 0.9 1.7 0.00 0.84 0.00 90 1012.3
20260507020003 60 74 0.9 1.7 0.00 0.84 0.00 89 1012.4
20260507015403 60 85 0.0 1.7 0.00 0.84 0.00 90 1012.5
20260507014718 60 100 1.7 3.5 0.00 0.84 0.00 90 1012.3
20260507013817 60 54 1.7 5.2 0.00 0.84 0.00 90 1012.4
20260507012703 60 71 1.7 3.5 0.00 0.84 0.00 89 1012.2
20260507011803 60 74 1.7 6.1 0.00 0.84 0.00 90 1012.2
20260507010903 59 60 0.0 1.7 0.00 0.84 0.00 91 1012.4
20260507010004 58 7 0.9 1.7 0.00 0.84 0.00 91 1012.3
20260507005403 58 84 0.9 3.5 0.00 0.84 0.00 91 1012.3
20260507004503 58 101 1.7 3.5 0.00 0.84 0.00 90 1012.2
20260507003603 59 70 1.7 3.5 0.00 0.84 0.00 90 1012.5
20260507002703 59 99 0.0 1.7 0.00 0.84 0.00 89 1012.1
20260507001803 59 85 1.7 1.7 0.00 0.84 0.00 89 1012.1
20260507000903 58 55 0.9 1.7 0.00 0.84 0.00 90 1012.3
20260507000003 58 108 0.9 1.7 0.00 0.84 0.00 90 1012.4
20260506235403 59 101 0.9 3.5 0.00 0.84 0.00 89 1012.4
20260506234718 59 94 1.7 3.5 0.00 0.84 0.00 89 1012.4
20260506233817 59 101 1.7 3.5 0.00 0.84 0.00 88 1012.6
20260506232918 59 91 1.7 3.5 0.00 0.84 0.00 89 1012.6
20260506232018 59 89 0.9 3.5 0.00 0.84 0.00 89 1012.8
20260506230903 58 55 0.9 1.7 0.00 0.84 0.00 90 1012.9
20260506230218 59 82 0.0 3.5 0.00 0.84 0.00 89 1012.8